Regional Weather Roundup
Issued by NWS Little Rock, AR

Home | Current Version | Previous Version | Graphics & Text | Print | Product List | Glossary On
Versions: 1 2 3 4 5 6 7 8 9 10 11 12 13 14 15 16 17 18 19 20 21 22 23 24 25 26 27 28 29 30 31 32 33 34 35 36 37 38 39 40 41 42 43 44 45 46 47 48 49 50
000
ASUS44 KLZK 291705
RWRLZK

WEATHER ROUNDUP FOR ARKANSAS
NATIONAL WEATHER SERVICE LITTLE ROCK AR
1200 PM CDT FRI AUG 29 2014

NOTE: "FAIR" INDICATES FEW OR NO CLOUDS BELOW 12,000 FEET WITH NO
SIGNIFICANT WEATHER AND/OR OBSTRUCTIONS TO VISIBILITY.

ARZ001-003-010-029-291800-
NORTHWEST ARKANSAS

CITY           SKY/WX    TMP DP  RH WIND       PRES   REMARKS
FAYETTEVILLE   PTSUNNY   84  68  58 S16       29.96S HX  87
FORT SMITH     MOSUNNY   88  65  46 W13       29.92F HX  90
HARRISON       MOSUNNY   84  70  62 S12       29.96F HX  88
BENTONVILLE    PTSUNNY   82  66  57 W10       29.97R HX  85
ROGERS         PTSUNNY   82  67  60 SW12G20   29.97R
SILOAM SPGS    MOSUNNY   82  64  54 SW10      29.97S
HIGHFILL       MOSUNNY   83  66  56 SW10      29.96R HX  85
SPRINGDALE     PTSUNNY   82  66  57 SW12G23   29.98R HX  85
$$

ARZ004-005-016-291800-
NORTH CENTRAL ARKANSAS

CITY           SKY/WX    TMP DP  RH WIND       PRES   REMARKS
BATESVILLE     PTSUNNY   86  66  51 S10G16    29.97R HX  88
FLIPPIN        MOSUNNY   81  64  57 S5        29.95S
MTN HOME       CLOUDY    83  66  56 SW7       29.95F HX  85
$$

ARZ040-041-291800-
WEST CENTRAL ARKANSAS

CITY           SKY/WX    TMP DP  RH WIND       PRES   REMARKS
MENA           MOSUNNY   86  72  62 SW3       29.98S HX  92
MOUNT IDA      PTSUNNY   83  70  64 MISG      29.95R HX  87
$$

ARZ009-017-025-026-028-291800-
NORTHEAST ARKANSAS

CITY           SKY/WX    TMP DP  RH WIND       PRES   REMARKS
CORNING        LGT RAIN  90  68  48 S9        29.96S HX  93
JONESBORO      SUNNY     91  69  48 S13       29.96S HX  96
NEWPORT        SUNNY     88  71  56 S14       29.98R HX  93
WALNUT RIDGE   SUNNY     90  68  48 S10       29.94F HX  93
BLYTHEVILLE    SUNNY     89  72  56 S8        29.98F HX  96
$$

ARZ022-023-033-042-044-291800-
CENTRAL ARKANSAS

CITY           SKY/WX    TMP DP  RH WIND       PRES   REMARKS
LITTLE ROCK    MOSUNNY   85  71  63 SE5       29.97R HX  90
N LITTLE ROCK  MOSUNNY   88  74  63 S8        29.97R HX  97
JACKSONVILLE   MOSUNNY   86  72  62 S7        29.97S HX  93
SEARCY         SUNNY     87  72  61 MISG      29.98S HX  93
HOT SPRINGS    SUNNY     87  71  58 SW12      29.97S HX  93
RUSSELLVILLE   MOSUNNY   83  72  69 MISG      29.95S HX  88
CLINTON        FAIR      84  73  70 S5        29.96S HX  91
$$

ARZ036-291800-
EAST ARKANSAS

CITY           SKY/WX    TMP DP  RH WIND       PRES   REMARKS
WEST MEMPHIS   SUNNY     89  74  60 VRB7      29.97S HX  98
$$

ARZ050-053-066-070-073-291800-
SOUTHWEST ARKANSAS

CITY           SKY/WX    TMP DP  RH WIND       PRES   REMARKS
ARKADELPHIA    FAIR      89  75  63 SW7       29.97R HX  98
CAMDEN         MOSUNNY   86  73  66 S7        29.97S HX  93
TEXARKANA      SUNNY     88  71  57 S7        29.96S HX  94
EL DORADO      PTSUNNY   87  74  64 S9        29.98S HX  95
DE QUEEN       MOSUNNY   85  73  67 S6        29.93S HX  91
$$

ARZ056-057-069-291800-
SOUTHEAST ARKANSAS

CITY           SKY/WX    TMP DP  RH WIND       PRES   REMARKS
PINE BLUFF     MOSUNNY   88  72  58 S5        29.98S HX  94
STUTTGART      MOSUNNY   84  73  70 SE7       29.99S HX  91
MONTICELLO     MOSUNNY   88  71  57 VRB6      29.98S HX  94

$$





USA.gov is the U.S. government's official web portal to all federal, state and local government web resources and services.